Tropical Cyclones
[Index]
Main Index Home Page Stock Weather Photos Extreme Storms Discussion Storm News and Storm Chasing Reports Tropical Cyclones / Hurricanes / Typhoons Weather Data and Links Wild Fires / Bushfires Weather Observation Techniques Weather Picture Catalogue Tornado Pictures and Reports Stock Video Footage and DVDs for sale
Season 1991-1992 Tropical Cyclone JANE Track Map
Season 1991-1992 Summaries: [BoM-AU] [JTWC-AU] [JTWC-SIO] [JTWC-SPAC] [JTWC-SH]
<<- Previous TC | BoM 1991-1992 Season | Next TC ->>

click for intensity scale information  Lat/long Grid: Show Hide

 Date Labels: Show Hide

Bureau of Meteorology Tropical Cyclone Data

Name: JANE
Number: 752 / 199192_10

07 Apr 1992 00:00 UTC to 17 Apr 1992 06:00 UTC

    date/time    lat    long    hPa   cat  kts
1992-04-07 00    6.6    99.1   1002         25          
1992-04-07 06    6.8    98.9   1002         25          
1992-04-07 12    7.0    98.7   1000         25          
1992-04-07 18    7.3    98.5    998         30          
1992-04-08 00    7.6    98.1    995    1    35          
1992-04-08 06    8.1    97.9    993    1    40          
1992-04-08 12    8.7    98.2    990    1    45          
1992-04-08 18    9.2    98.2    986    1    50          
1992-04-09 00    9.8    98.3    984    2    50          
1992-04-09 06   10.3    98.4    982    2    50          
1992-04-09 12   10.9    98.5    980    2    55          
1992-04-09 18   11.4    98.7    976    2    60          
1992-04-10 00   11.9    99.0    970    3    65          
1992-04-10 06   12.3    99.2    966    3    70          
1992-04-10 12   12.6    99.3    964    3    70          
1992-04-10 18   12.9    99.4    962    3    75          
1992-04-11 00   13.2    99.5    960    3    75          
1992-04-11 06   13.5    99.6    960    3    75          
1992-04-11 12   13.9    99.5    960    3    75          
1992-04-11 18   14.1    99.0    958    3    80          
1992-04-12 00   14.2    98.5    956    3    80          
1992-04-12 06   14.3    97.8    954    4    80          
1992-04-12 12   14.3    96.7    952    4    80          
1992-04-12 18   14.5    94.9    950    4    85          
1992-04-13 00   14.7    93.9    948    4    85          
1992-04-13 06   14.9    92.7    942    4    90          
1992-04-13 12   15.1    91.5    935    4    95          
1992-04-13 18   15.1    90.4    930    4    100          
1992-04-14 00   15.0    89.5    925    5    100          
1992-04-14 06   14.9    88.4    920    5    105          
1992-04-14 12   14.8    87.4    915    5    110          
1992-04-14 18   14.6    86.4    915    5    110          
1992-04-15 00   14.7    85.4    915    5    110          
1992-04-15 06   14.9    84.4    915    5    110          
1992-04-15 12   14.9    83.7    920    5    110          
1992-04-15 18   14.9    83.2    930    4    100          
1992-04-16 00   15.0    82.8    955    4    85          
1992-04-16 06   15.2    82.5    970    3    65          
1992-04-16 12   15.8    82.2    985    2    50          
1992-04-16 18   16.4    82.2    990    1    40          
1992-04-17 00   17.1    82.6    995    1    35          
1992-04-17 06   17.8    83.1    998         30          
Winds are 10-min average.

Tropical cyclone tracks developed by Michael Bath using data from the Bureau of Meteorology and Google Maps.


[Australian Severe Weather index] [Copyright Notice] [Email Contacts] [Search This Site] [Privacy Policy]
Document: tropical_cyclone_jane.htm Updated: 4 April 2018